Temp
13 13 12 12 11 11 11 10 9 8 8 8 8 7 7 6 6 6 6 6 5 6 6 6 5 6 6 6 7 6 7 7 8 8 8 8 7 7 6 6 6 6 5
12 11 11 11 10 10 9 8 7 7 7 6 5 5 5 4 4 4 4 4 4 5 5 5 5 5 5 5 5 6 6 6 6 7 6 6 6 6 6 5 5 5 5
10 10 9 9 9 8 7 7 6 6 5 4 4 4 3 3 3 3 3 3 4 4 4 4 4 4 4 5 5 5 4 4 5 5 5 5 5 5 5 5 5 5 5
8 8 8 7 7 6 6 6 4 3 3 3 3 3 2 2 2 2 2 3 3 3 3 3 3 3 3 2 2 2 3 3 3 4 4 5 4 4 3 4 5 5 5
7 6 6 6 6 5 5 3 2 2 2 2 2 2 2 2 2 1 1 1 2 2 2 2 2 2 2 1 0 0 0 1 1 2 3 3 3 4 3 4 4 3 3
6 5 6 5 4 3 2 2 2 1 1 1 1 1 2 2 2 1 1 0 1 1 1 1 1 1 1 1 1 1 1 0 0 1 1 2 2 2 3 3 3 2 2
5 4 3 3 2 2 2 2 2 1 1 1 1 1 1 1 1 1 -0 -1 -0 -1 -1 -1 -1 -1 -1 -0 -0 -0 -0 0 0 0 1 1 1 2 2 2 1 1 2
4 3 2 2 2 2 1 1 1 2 1 1 0 0 0 0 0 -0 -1 -1 -1 -1 -2 -2 -1 -1 -1 -2 -2 -1 -1 -1 -0 0 0 0 0 1 1 1 1 0 0
3 2 1 1 1 1 1 0 0 -0 -0 -0 -1 -1 -1 -1 -1 -1 -1 -1 -2 -2 -2 -2 -2 -2 -2 -2 -3 -2 -2 -1 -0 -0 -0 0 0 1 0 -0 -1 -1 0
2 1 1 0 -0 -1 -1 -1 -1 -1 -1 -1 -1 -1 -1 -1 -1 -1 -1 -1 -2 -2 -2 -2 -2 -3 -3 -3 -3 -3 -2 -1 -1 -1 0 0 0 -0 -0 -1 -1 -1 -0
1 1 0 -0 -1 -1 -1 -1 -1 -1 -1 -1 -1 -1 -1 -1 -1 -1 -1 -2 -2 -2 -2 -2 -3 -3 -3 -3 -3 -3 -2 -2 -1 -1 -1 -1 -1 -1 -1 -1 -1 -1 -1
0 -0 -1 -1 -1 -1 -1 -1 -1 -1 -1 -1 -1 -1 -2 -2 -2 -2 -2 -2 -2 -3 -3 -3 -3 -3 -3 -3 -3 -2 -2 -2 -2 -2 -2 -2 -2 -2 -2 -2 -1 -1 -1
-1 -1 -1 -2 -1 -1 -2 -2 -2 -2 -3 -3 -2 -2 -2 -2 -2 -2 -2 -2 -2 -3 -3 -3 -3 -3 -3 -3 -3 -2 -2 -2 -2 -2 -2 -2 -3 -4 -3 -3 -3 -2 -2
-1 -1 -1 -1 -1 -1 -2 -2 -3 -3 -3 -2 -2 -2 -2 -2 -2 -3 -3 -3 -3 -3 -3 -3 -2 -2 -2 -3 -3 -3 -3 -3 -3 -3 -3 -3 -4 -4 -3 -3 -3 -3 -3
-1 -1 -1 -1 -2 -2 -1 -1 -1 -2 -3 -3 -3 -3 -3 -2 -2 -3 -3 -3 -3 -3 -3 -3 -2 -2 -2 -2 -2 -3 -3 -3 -3 -4 -4 -4 -4 -4 -4 -4 -3 -3 -2
-1 -2 -2 -2 -2 -1 -1 -1 -0 -0 -1 -1 -1 -2 -2 -2 -3 -3 -3 -4 -3 -3 -4 -3 -2 -2 -2 -2 -3 -3 -3 -3 -4 -4 -4 -4 -4 -4 -4 -4 -4 -3 -3
-1 -2 -2 -1 -1 -1 -1 -1 -2 -0 0 1 -0 -1 -2 -3 -3 -4 -4 -4 -4 -4 -4 -4 -3 -3 -3 -3 -3 -3 -3 -4 -5 -4 -5 -5 -5 -5 -4 -4 -4 -4 -4
0 0 -0 -1 -1 -1 -1 -2 -3 -4 -3 -2 0 -1 -2 -3 -4 -5 -4 -4 -4 -4 -4 -4 -4 -3 -3 -3 -3 -3 -3 -4 -4 -5 -5 -5 -5 -4 -4 -4 -4 -5 -5
0 -0 -0 -0 -1 -1 -2 -2 -2 -4 -4 -4 -4 -3 -3 -3 -4 -4 -4 -4 -4 -4 -4 -4 -4 -4 -3 -4 -4 -4 -4 -4 -5 -5 -5 -5 -5 -5 -5 -5 -5 -5 -5
0 0 -0 -1 -1 -2 -2 -3 -4 -4 -4 -4 -4 -4 -5 -5 -4 -4 -4 -4 -4 -4 -4 -4 -4 -4 -4 -4 -4 -4 -4 -5 -5 -5 -5 -5 -5 -5 -5 -5 -5 -5 -5
-0 -0 -1 -2 -2 -2 -3 -4 -4 -4 -4 -4 -4 -5 -5 -6 -5 -5 -5 -5 -4 -4 -4 -4 -5 -4 -4 -4 -4 -4 -4 -4 -5 -5 -5 -5 -6 -6 -6 -6 -6 -6 -6
-1 -1 -1 -2 -2 -3 -3 -3 -4 -4 -4 -5 -5 -5 -5 -6 -6 -5 -5 -5 -5 -4 -5 -4 -4 -4 -4 -4 -4 -4 -4 -5 -5 -5 -6 -6 -6 -6 -7 -7 -7 -7 -7
-1 -2 -3 -3 -3 -4 -4 -4 -4 -5 -5 -5 -5 -6 -6 -6 -6 -6 -6 -6 -6 -5 -4 -5 -4 -4 -4 -4 -4 -4 -4 -5 -5 -5 -5 -6 -7 -7 -7 -7 -7 -7 -6
-3 -3 -4 -4 -4 -4 -4 -4 -5 -6 -5 -6 -6 -6 -6 -7 -6 -6 -6 -6 -7 -6 -5 -5 -5 -4 -4 -4 -4 -4 -4 -4 -4 -4 -5 -5 -6 -7 -7 -7 -7 -7 -7
-4 -4 -4 -4 -4 -4 -5 -6 -6 -6 -6 -6 -6 -7 -7 -6 -7 -7 -7 -7 -7 -7 -7 -6 -5 -4 -4 -4 -4 -4 -4 -4 -4 -4 -5 -5 -6 -7 -7 -7 -8 -8 -9
-4 -5 -6 -6 -6 -6 -6 -6 -6 -6 -7 -7 -7 -7 -7 -7 -7 -7 -7 -7 -7 -8 -8 -7 -6 -5 -4 -4 -4 -4 -5 -5 -5 -5 -5 -5 -6 -8 -8 -8 -8 -8 -9
Height
795 799 802 806 809 812 813 816 818 817 817 817 816 814 813 812 811 809 806 804 802 800 798 794 790 788 786 783 781 778 776 774 768 754 758 756 754 751 747 744 739 736 734
794 798 802 805 808 810 812 814 814 814 813 813 812 810 808 808 807 805 803 802 799 796 793 790 788 785 782 779 776 773 771 768 764 754 752 752 750 747 743 739 735 732 730
793 797 801 804 806 809 811 811 810 811 810 810 809 808 806 806 804 803 801 797 795 793 790 788 784 782 779 776 773 769 766 763 759 754 745 746 744 742 738 735 732 729 727
791 795 799 803 807 808 807 808 808 809 809 807 805 805 805 805 802 798 795 793 791 788 787 785 781 778 776 772 768 764 760 756 753 749 744 740 739 737 734 730 725 725 722
790 795 799 802 803 804 806 807 806 806 805 804 804 803 803 801 799 796 793 790 787 784 782 780 777 773 769 766 762 759 756 752 747 742 737 735 732 731 729 726 723 719 714
788 793 796 799 802 804 805 803 803 803 803 804 803 801 800 800 797 794 792 789 786 782 778 776 773 767 763 759 756 753 751 747 742 738 733 729 726 725 724 722 719 714 710
786 790 795 797 801 803 801 802 802 802 802 802 800 798 799 797 794 792 789 786 780 776 773 769 765 763 758 753 749 745 741 739 735 731 726 725 721 720 719 716 714 712 709
784 788 792 794 798 799 800 800 799 799 799 798 798 798 797 795 791 788 783 778 774 772 770 766 761 757 753 748 743 738 733 730 726 722 718 716 714 714 712 711 710 708 706
782 785 788 792 795 795 794 795 796 796 795 797 797 795 793 789 786 783 780 776 773 769 765 761 757 752 747 743 738 732 726 721 717 713 710 709 708 707 706 705 704 703 701
778 781 786 789 790 790 791 792 792 792 794 796 794 791 788 786 783 780 776 772 768 764 761 755 751 746 741 737 733 727 720 715 711 707 703 702 702 701 700 699 698 697 696
775 781 784 785 786 788 788 787 789 792 792 792 790 787 786 783 780 776 774 769 766 759 755 749 745 740 735 731 726 721 715 711 706 703 700 698 696 695 694 693 692 691 691
775 777 778 781 783 784 784 786 788 790 790 787 785 784 782 779 774 772 770 768 764 758 751 744 738 733 729 724 720 715 711 707 703 700 698 695 693 692 691 689 688 687 687
771 772 776 779 780 782 785 787 789 788 784 783 783 780 776 772 770 767 764 761 757 754 747 740 733 728 724 719 716 712 708 705 702 699 696 694 693 691 690 689 688 687 688
767 771 774 776 779 782 784 785 784 783 781 780 776 772 770 768 767 763 761 756 753 748 741 734 729 725 721 717 713 711 708 705 702 699 697 695 693 692 691 691 691 691 691
765 770 773 776 779 781 781 781 779 779 780 777 772 771 768 766 765 762 758 753 749 743 737 731 727 723 719 716 713 710 708 705 702 699 697 695 694 693 693 693 692 692 693
763 768 771 774 776 777 777 776 776 776 775 772 770 767 765 763 760 757 755 750 743 739 735 731 726 722 719 715 712 709 707 705 702 700 699 697 696 696 695 695 695 695 697
760 764 768 769 771 771 772 772 773 770 770 768 766 765 762 759 756 754 750 745 740 738 735 731 726 722 719 716 712 710 708 705 703 702 701 699 698 698 697 698 699 700 703
758 761 764 765 766 767 769 768 768 768 769 766 764 761 758 756 753 749 747 741 738 736 734 730 725 721 718 715 712 710 708 706 704 703 703 701 700 700 701 702 704 706 709
754 756 757 760 762 763 764 763 764 766 766 762 761 757 754 752 749 747 744 741 738 735 731 727 724 720 717 714 712 709 708 706 705 705 704 703 703 703 705 707 708 711 713
750 752 754 756 759 759 759 759 761 762 762 761 758 756 752 750 746 744 740 739 736 733 729 725 722 719 715 712 711 709 708 707 706 705 706 705 705 706 708 710 713 716 719
747 749 750 753 753 752 752 753 754 753 754 753 752 751 750 749 745 742 739 736 734 730 726 722 719 717 714 711 709 708 707 706 706 706 707 707 708 708 712 714 717 720 723
742 744 745 746 746 746 747 749 748 748 748 748 747 747 745 744 742 739 736 734 731 727 723 719 715 714 711 709 707 707 706 705 706 706 707 708 709 710 713 717 720 724 727
738 739 739 740 741 740 739 739 740 740 741 741 742 742 740 738 737 735 733 730 727 723 719 715 712 710 708 706 704 704 704 703 704 705 706 708 709 711 715 718 722 726 730
733 732 733 733 734 733 733 731 732 733 734 735 735 735 734 733 732 730 728 726 723 720 716 712 708 706 704 703 701 701 701 701 701 703 705 707 709 711 715 719 724 728 732
727 728 728 727 727 727 727 726 726 727 728 729 729 728 728 728 727 726 724 721 718 716 711 708 704 701 700 699 698 698 698 698 699 700 702 705 707 710 714 719 724 729 733
724 724 723 723 722 722 722 722 722 722 722 722 722 721 722 722 721 720 719 717 714 711 707 703 700 696 695 694 694 694 694 695 696 698 700 703 706 711 714 719 725 730 734
Wind_Speed
23 20 18 15 12 9 7 5 3 1 3 6 8 9 11 13 15 15 15 16 16 17 16 17 18 18 18 18 18 18 20 22 15 31 26 24 25 25 24 22 20 22 17
23 21 18 15 12 9 7 4 1 4 7 7 8 10 10 11 12 12 12 12 13 14 15 15 17 17 17 17 17 19 19 20 21 25 25 24 27 25 26 25 22 21 23
22 20 17 14 10 8 4 1 4 5 5 5 7 8 10 10 11 11 11 12 13 15 17 18 19 19 21 20 20 19 17 17 20 22 26 23 24 22 25 24 21 21 20
20 17 15 12 8 4 1 4 3 4 5 6 7 8 7 9 10 11 13 14 16 17 18 18 19 19 20 22 22 21 21 19 19 23 23 22 20 21 22 22 24 17 22
19 16 12 9 4 1 1 2 3 5 6 6 7 6 7 9 10 14 15 16 17 18 18 19 19 21 26 24 20 20 21 22 21 21 19 20 18 20 17 20 22 22 25
18 14 10 5 3 2 2 4 5 6 6 4 4 7 9 9 12 15 20 19 18 19 20 21 21 24 24 26 27 26 27 26 25 24 21 19 19 17 19 22 21 16 6
16 12 8 6 4 2 3 3 4 5 6 6 6 8 10 11 14 17 20 19 18 19 20 23 24 24 27 25 26 27 26 27 26 28 26 23 22 20 21 21 17 17 20
13 11 8 7 5 3 3 2 3 4 5 7 9 10 11 12 14 17 20 18 19 18 20 23 24 27 25 28 30 29 30 30 29 28 30 29 28 26 25 23 22 21 21
13 11 9 7 6 4 3 3 4 5 7 8 9 12 13 13 14 17 21 19 19 20 20 22 25 28 30 28 31 28 29 30 28 28 25 24 23 23 22 21 17 13 9
14 12 10 9 6 3 2 2 4 6 7 9 11 12 13 12 14 17 20 20 21 22 23 23 23 26 29 30 29 29 26 26 26 23 18 15 17 20 20 19 21 16 10
14 13 10 7 5 4 1 3 4 5 7 7 8 9 11 11 14 17 20 20 21 25 26 25 25 28 30 29 30 29 25 24 22 19 18 18 16 15 17 16 17 19 13
14 12 9 7 6 4 3 1 2 4 6 7 8 8 10 13 16 20 22 23 26 26 28 28 29 31 30 27 27 20 18 17 15 14 12 10 9 8 9 9 10 13 15
14 12 10 8 7 4 2 2 3 3 3 5 7 10 12 16 19 20 23 26 27 29 27 31 32 28 24 21 18 17 14 10 9 8 8 7 6 6 2 4 6 7 6
17 15 12 10 8 6 4 3 1 2 3 4 7 11 15 16 17 21 25 26 26 25 27 30 27 23 19 17 14 10 9 9 8 8 7 4 2 1 3 6 9 13 16
16 15 13 10 9 7 3 2 3 3 3 6 9 11 15 16 18 25 25 28 26 26 31 24 20 17 15 14 10 9 9 8 7 5 4 2 1 3 4 6 6 8 14
16 15 14 12 9 5 2 1 3 5 7 9 11 11 14 14 19 22 23 27 25 23 20 16 16 14 14 14 11 10 8 7 6 4 2 0 2 4 5 7 9 12 15
17 16 14 12 8 5 1 3 7 9 11 12 15 16 12 13 18 22 24 22 22 18 15 14 14 14 13 13 10 9 8 6 4 2 1 2 4 6 8 9 11 14 15
19 16 13 11 8 6 4 4 4 4 7 13 14 16 18 18 23 21 18 21 19 16 15 15 14 13 13 12 10 8 7 4 2 1 1 3 5 7 9 11 12 14 14
18 15 12 11 10 10 9 7 7 7 8 8 11 14 17 22 23 18 18 15 17 17 16 16 14 13 12 11 9 7 6 4 2 1 1 3 6 8 10 11 13 14 15
16 14 12 12 12 11 11 10 9 9 8 8 9 10 13 17 17 17 17 18 18 18 16 15 15 14 12 10 9 7 5 3 3 3 3 4 7 9 11 13 13 15 14
16 14 16 15 15 14 13 13 12 10 9 8 9 11 13 13 14 15 17 19 19 19 18 15 15 15 13 10 8 7 6 5 4 5 5 6 8 12 12 13 14 15 17
16 16 15 16 14 14 15 15 13 11 10 9 9 11 15 12 12 13 16 19 20 21 21 17 16 16 13 10 8 8 7 7 7 7 8 9 10 12 14 15 15 16 16
17 16 15 14 15 16 16 16 15 13 11 10 10 10 10 11 12 13 15 19 20 23 24 21 17 17 14 11 9 9 9 9 10 12 13 12 13 15 15 17 17 17 16
11 12 13 13 14 14 15 15 15 15 14 11 12 12 11 12 12 14 16 18 20 21 24 22 18 17 15 13 10 10 11 11 12 14 16 17 16 18 18 18 18 17 18
8 9 11 12 12 13 13 13 14 13 13 14 15 13 13 13 14 15 16 17 17 20 23 22 20 16 16 14 12 11 11 11 12 15 17 19 21 21 21 20 20 19 19
7 8 8 8 9 9 10 11 13 14 15 15 14 14 14 15 15 16 16 16 16 20 23 21 20 17 16 15 13 12 12 12 14 16 19 21 23 20 22 22 22 20 20
Wind_Direction
151 152 149 144 142 139 131 127 139 51 327 316 310 314 319 319 317 314 317 315 314 315 317 310 306 309 302 296 287 284 283 280 279 286 291 299 299 298 298 302 302 308 311
156 152 147 143 140 133 138 161 233 301 308 307 308 318 326 326 324 320 321 323 328 327 326 330 326 324 315 308 300 290 287 282 278 283 292 294 296 299 296 300 301 302 307
153 148 141 137 139 145 160 252 309 311 317 324 334 340 344 337 328 331 327 322 319 321 322 318 315 313 309 306 304 300 294 290 286 282 289 295 294 300 300 294 298 301 305
146 140 138 140 148 154 319 316 327 342 348 354 351 349 338 333 339 333 330 323 321 316 310 309 309 306 307 310 305 298 293 286 284 283 282 288 289 296 291 290 302 302 305
141 138 138 146 153 130 335 3 5 1 357 351 344 342 341 345 348 350 344 329 319 311 309 309 304 303 311 310 307 302 301 293 282 278 278 281 280 289 285 293 295 301 308
141 140 148 149 127 83 72 39 23 9 3 353 359 354 342 335 344 339 334 323 315 317 315 310 310 312 309 305 304 299 295 285 280 276 277 276 272 275 283 286 294 303 310
144 136 145 130 123 130 68 50 35 23 7 349 339 334 323 325 338 336 332 324 320 320 316 314 315 310 309 305 306 305 300 292 281 274 271 272 273 272 276 274 277 284 288
137 145 144 149 149 125 113 70 31 358 343 338 329 319 315 322 334 337 331 326 320 316 314 314 310 309 309 311 312 307 305 298 286 278 271 273 271 278 277 269 280 281 286
151 152 154 157 160 151 106 46 13 360 351 330 317 320 320 321 337 340 338 331 323 317 314 314 312 307 312 314 316 308 304 298 299 295 287 278 274 274 271 277 265 265 271
160 157 167 169 165 141 94 25 4 354 329 318 316 318 324 319 335 346 342 334 323 322 317 310 308 308 311 314 313 307 298 295 299 300 294 279 273 272 271 267 270 256 246
151 164 162 159 161 167 139 25 351 310 297 298 310 326 327 330 334 342 341 336 326 322 316 315 312 315 317 315 312 308 298 306 298 290 287 288 287 281 278 270 259 251 223
163 157 147 152 159 144 94 45 297 288 292 311 332 335 337 336 336 334 338 333 328 321 316 314 311 314 316 315 313 315 312 305 302 295 291 289 287 284 282 274 260 252 242
155 140 141 144 128 123 140 224 268 301 327 342 334 335 333 337 338 337 334 332 327 322 319 320 320 321 321 316 316 318 319 316 314 304 303 302 300 287 253 148 145 149 156
145 144 141 131 137 158 191 226 257 22 1 328 335 339 334 333 334 338 334 330 326 324 324 324 327 325 324 316 316 319 322 325 323 315 310 312 315 241 161 152 126 114 102
146 150 152 161 173 179 170 134 76 39 358 334 348 341 333 325 331 330 330 328 322 322 321 319 319 323 326 323 318 314 324 332 329 326 317 325 39 112 105 127 115 107 115
155 166 172 176 179 177 166 49 44 25 13 14 9 347 334 332 334 330 323 327 331 332 327 324 326 327 326 324 321 317 324 334 335 350 341 23 96 101 98 90 102 109 109
172 175 182 185 188 196 251 349 337 334 348 354 353 353 350 337 339 330 326 330 337 342 330 325 327 329 328 325 322 315 320 331 336 350 311 103 104 98 94 98 106 111 106
186 191 194 202 211 226 250 266 303 313 317 326 341 349 358 346 335 337 332 338 335 331 327 320 320 324 326 324 322 310 312 320 335 349 128 120 111 108 107 111 113 113 112
194 202 210 222 234 241 254 275 286 292 290 301 323 339 346 343 342 343 339 335 323 314 318 321 319 317 319 319 314 302 294 290 263 174 150 125 117 111 110 114 112 114 116
213 221 227 237 246 251 255 258 263 268 283 298 313 323 335 337 334 333 334 322 319 312 308 313 314 315 314 314 308 295 277 254 220 180 162 137 124 122 125 122 123 120 112
228 238 242 245 251 253 252 247 248 251 262 274 290 309 327 324 317 320 324 319 310 313 307 304 311 311 309 309 297 278 261 241 213 185 170 153 139 129 129 129 126 123 122
239 246 249 250 257 258 253 251 249 250 258 269 287 299 316 317 314 314 316 314 313 309 318 297 302 308 303 298 284 272 252 233 212 191 180 164 149 142 140 137 132 131 129
246 254 257 260 263 262 261 252 243 243 250 258 272 282 295 302 306 306 311 309 311 313 316 317 296 303 302 294 278 262 251 235 217 202 190 176 164 155 152 148 144 139 136
253 258 257 258 261 261 259 252 241 244 246 253 263 268 278 288 292 298 306 308 307 311 323 316 308 292 294 285 272 259 251 243 229 213 202 188 174 165 156 152 150 146 140
282 272 266 266 264 262 262 258 245 243 251 260 261 264 273 280 285 292 300 307 303 309 314 321 315 292 286 276 263 253 247 236 223 208 197 192 182 171 161 155 153 149 146
291 283 276 272 272 268 264 259 256 257 258 261 264 266 269 275 282 286 293 300 303 308 314 316 316 301 280 272 259 244 237 228 214 201 191 184 174 167 162 157 155 154 152